Regional Weather Roundup
Issued by NWS Albany, NY

Home | Current Version | Previous Version | Graphics & Text | Print | Product List | Glossary Off
Versions: 1 2 3 4 5 6 7 8 9 10 11 12 13 14 15 16 17 18 19 20 21 22 23 24 25 26 27 28

000
ASUS41 KALY 241110
RWRALY

NEW YORK STATE HOURLY WEATHER ROUNDUP
NATIONAL WEATHER SERVICE ALBANY NY
700 AM EDT TUE MAY 24 2016

NOTE: "FAIR" INDICATES FEW OR NO CLOUDS BELOW 12,000 FEET WITH NO
SIGNIFICANT WEATHER AND/OR NO OBSTRUCTIONS TO VISIBILITY.

NYZ032-033-038>043-046>054-057>066-NYZ062>081-082-084-241200-
EAST


CITY           SKY/WX    TMP DP  RH WIND       PRES   REMARKS
ALBANY         CLOUDY    61  55  81 CALM      29.90S
GLENS FALLS    CLOUDY    57  45  64 N3        29.91S
POUGHKEEPSIE   LGT RAIN  58  55  90 SW7       29.87F FOG
MONTGOMERY     LGT RAIN  58  55  90 NW5       29.90S FOG
WHITE PLAINS   LGT RAIN  58  55  90 NW7       29.88R
ISLIP          LGT RAIN  58  54  86 N6        29.88R
NEW YORK CITY  LGT RAIN  62  60  93 NW6       29.88R
CENTRAL PARK   LGT RAIN  59  56  89 W5        29.92R FOG
$$

NYZ005>009-017-018-044>046-055-056-241200-
CENTRAL


CITY           SKY/WX    TMP DP  RH WIND       PRES   REMARKS
FULTON         MOSUNNY   54  45  71 NW6       29.94S
SYRACUSE       PTSUNNY   54  48  80 CALM      29.94S
ROME           MOSUNNY   46  45  96 CALM      29.96R
ELMIRA         SUNNY     49  43  80 SW8       29.99R
BINGHAMTON     SUNNY     55  41  59 NW6       29.95S
MONTICELLO     CLOUDY    55  52  88 NW3       29.95R
$$

NYZ026>034-041>043-087-241200-
NORTH


CITY           SKY/WX    TMP DP  RH WIND       PRES   REMARKS
WATERTOWN      SUNNY     48  45  89 CALM      29.94S
FORT DRUM      NOT AVBL
MASSENA        MOSUNNY   52  48  86 CALM      29.94S
SARANAC LAKE   MOSUNNY   47  40  76 CALM      29.96S
PLATTSBURGH    MOSUNNY   53  45  74 CALM      29.92R
$$

NYZ001>004-010>016-019>021-085-241200-
WEST


CITY           SKY/WX    TMP DP  RH WIND       PRES   REMARKS
NIAGARA FALLS  MOSUNNY   54  49  83 S5        30.00R
BUFFALO        SUNNY     57  48  72 SW8       30.01R
DUNKIRK        SUNNY     55  46  71 SW6       30.02R
JAMESTOWN        N/A    N/A N/A N/A MISG        N/A
WELLSVILLE     SUNNY     51  42  71 W9        30.04R
ROCHESTER      MOSUNNY   50  46  86 SW6       29.99R
PENN YAN       MOSUNNY   54  47  77 W3        29.98S
$$

             KEY
       WCI = WIND CHILL INDEX
       VSB = VISIBILITY
       HX  = HEAT INDEX
$$




USA.gov is the U.S. government's official web portal to all federal, state and local government web resources and services.